Location: Newark
(35.5470°N, 95.4930°W)
Time: 20:49:38
(UTC+00:00)

Envisat - Visible Passes

Search period start: 22 February 2020 00:00
Search period end: 03 March 2020 00:00
Orbit: 764 x 766 km, 98.1° (Epoch: 22 February)

Date Brightness Start Highest point End Pass type
(mag) Time Alt. Az. Time Alt. Az. Time Alt. Az.
22 Feb 5.0 12:17:39 10° NNE 12:22:13 33° E 12:26:46 10° SSE visible
23 Feb 5.6 01:08:41 10° SSW 01:12:47 25° W 01:16:54 10° NW visible
23 Feb 6.4 11:42:35 10° ENE 11:45:11 14° E 11:47:46 10° ESE visible
24 Feb 3.8 00:30:53 10° S 00:35:52 58° W 00:40:53 10° NNW visible
25 Feb 6.4 01:36:07 10° WSW 01:38:29 13° W 01:40:51 10° WNW visible
25 Feb 5.5 12:06:39 10° NE 12:10:52 26° E 12:15:03 10° SSE visible
26 Feb 5.1 00:56:56 10° SSW 01:01:25 31° W 01:05:56 10° NW visible
26 Feb 6.7 11:32:56 10° E 11:33:46 10° E 11:34:36 10° E visible
28 Feb 6.1 01:23:46 10° SW 01:27:05 17° W 01:30:23 10° NW visible
28 Feb 6.0 11:55:47 10° NE 11:59:30 20° E 12:03:10 10° SE visible
29 Feb 4.6 00:45:19 10° SSW 00:50:05 41° W 00:54:52 10° NNW visible
01 Mar 4.9 12:20:26 10° NNE 12:25:07 36° E 12:29:46 10° SSE visible
02 Mar 5.8 01:11:46 10° SW 01:15:41 22° W 01:19:38 10° NW visible
02 Mar 6.3 11:45:07 10° NE 11:48:06 16° E 11:51:04 10° SE visible
